Theta_e
317 317 317 317 318 318 318 318 318 319 319 319 319 319 320 320 320 321 321 321 321 321 322 321 321 321 321 321 321 320 317 321 322 322 316 314 324 328 330 331 332 332 330 315 314 313 310 310 308 310 310 310 310 309 312 311 311 309 303 302 299 301 300 305 306 308 309 311 315 320 321 318 317 323 324 328 325 325 325 324 327 329 329 330 332 333 331 332
317 317 317 318 318 318 318 319 319 319 320 319 319 320 320 320 320 321 321 321 321 322 322 321 322 321 321 321 320 319 318 323 317 310 309 323 327 331 332 333 331 332 325 313 312 311 310 308 308 309 308 306 311 308 312 308 311 305 304 303 299 302 305 310 311 308 308 311 317 319 321 319 319 322 324 320 320 321 321 323 325 325 326 328 330 331 330 331
317 317 317 318 318 318 319 319 319 319 319 320 320 320 320 320 320 321 321 321 321 322 321 322 321 321 321 321 320 318 319 321 315 307 314 330 332 333 331 331 330 327 315 312 312 312 311 310 309 308 307 306 308 306 309 308 309 307 304 300 302 305 307 307 307 308 311 312 318 319 320 321 321 322 324 319 319 320 317 318 321 322 322 324 327 329 330 327
317 317 317 318 318 318 318 319 319 319 319 320 320 320 320 320 320 321 321 321 321 322 322 322 321 321 321 321 319 321 323 320 305 309 317 333 332 332 331 330 327 321 315 313 313 313 313 312 309 309 305 305 306 309 305 308 305 307 304 301 303 306 305 307 308 309 314 315 318 318 320 320 322 322 322 319 317 318 318 322 323 322 322 324 325 327 329 328
317 317 317 318 318 318 318 319 319 319 319 319 320 320 320 320 320 320 320 321 321 322 322 322 322 321 322 321 319 321 322 307 303 312 324 332 333 331 332 330 324 315 313 313 314 313 313 312 310 308 306 303 305 306 306 307 309 307 304 306 305 305 304 311 312 313 317 319 319 318 316 318 323 322 321 320 314 315 319 322 327 326 327 325 325 327 328 326
317 317 317 318 318 318 318 318 319 319 319 319 320 320 320 320 320 320 320 321 322 322 322 322 322 323 321 319 321 323 315 295 308 314 338 333 332 334 330 331 323 314 313 313 312 312 312 310 310 307 305 303 303 302 305 307 308 302 304 305 306 307 309 313 315 319 318 318 317 317 321 322 320 319 321 320 318 320 324 326 327 328 328 329 328 327 327 325
317 317 317 318 318 318 318 318 319 319 319 319 319 320 320 320 320 320 321 321 321 322 322 322 322 322 322 318 325 321 308 307 313 322 333 333 334 331 332 332 332 313 313 313 312 310 310 308 309 305 305 304 304 304 304 305 306 304 302 305 310 312 315 317 316 321 320 318 319 321 323 318 318 314 321 319 322 323 326 327 328 329 330 329 328 327 327 326
317 317 317 318 318 318 318 318 318 318 319 319 319 319 319 319 320 320 321 321 321 322 322 322 323 322 319 321 321 309 308 307 314 326 336 334 327 326 324 315 313 313 313 311 311 309 309 307 305 306 305 303 303 303 304 304 304 302 302 306 312 314 316 318 321 321 321 321 322 321 319 318 320 318 320 318 322 324 326 328 328 328 328 328 327 327 327 328
317 317 317 318 318 318 318 318 318 318 319 319 319 320 319 319 319 320 320 320 320 321 321 322 322 321 316 317 312 307 305 313 319 328 327 322 320 317 314 313 314 313 312 313 312 311 310 306 307 307 302 302 304 302 304 303 300 304 307 310 311 314 317 320 321 320 320 320 320 318 318 319 320 322 317 321 323 325 326 326 325 326 326 326 326 327 328 329
317 317 317 317 318 318 317 318 318 318 319 319 319 319 319 319 319 319 320 320 320 321 321 321 322 320 321 320 311 304 310 317 320 328 322 319 318 314 312 314 314 313 312 312 313 311 308 307 307 308 313 312 310 304 304 304 304 310 311 312 314 316 318 320 319 320 321 320 320 316 317 317 320 320 313 322 324 325 325 324 325 325 325 325 326 327 328 327
317 317 317 317 317 317 317 317 318 318 319 319 319 319 319 319 319 318 319 319 320 321 321 322 322 321 320 316 308 303 316 317 322 323 322 319 315 313 313 314 314 313 313 312 311 312 311 310 309 309 309 311 314 311 312 312 313 314 315 315 315 317 318 320 319 319 319 317 320 318 315 318 319 317 314 320 324 325 323 324 324 324 325 325 326 326 328 328
317 317 317 317 317 317 317 317 318 318 319 319 318 318 317 317 317 318 318 320 320 320 321 321 318 321 319 315 309 308 318 318 321 322 320 317 315 314 314 315 314 314 313 311 311 312 312 311 310 307 304 314 312 316 315 318 315 313 312 309 313 315 315 317 316 317 318 315 318 318 313 311 314 312 318 320 323 323 323 322 323 323 325 326 326 326 326 327
317 317 317 317 317 317 317 317 318 318 318 318 317 316 317 317 317 318 319 319 321 322 322 320 321 323 318 308 310 318 321 322 320 319 318 318 317 316 316 315 315 315 314 312 311 312 312 312 310 306 308 310 309 309 317 320 315 314 311 309 310 311 312 317 318 317 315 316 318 315 302 305 312 316 318 321 322 322 321 320 322 323 323 326 326 326 326 328
316 317 317 317 317 316 317 317 318 317 317 316 316 316 316 317 317 318 318 319 322 322 322 318 323 322 320 308 314 318 321 325 318 316 317 317 315 315 315 316 316 316 316 313 313 314 311 312 311 312 318 314 312 323 318 314 315 307 310 309 306 304 305 315 315 315 312 316 316 315 302 303 312 316 319 320 322 320 318 320 322 322 322 325 326 325 325 327
316 317 317 317 316 316 316 317 317 317 316 316 316 316 315 316 317 318 318 320 318 323 320 320 324 321 313 308 317 322 330 319 315 316 318 316 314 313 314 315 314 315 314 313 313 312 312 311 310 310 312 319 319 314 308 309 310 308 304 302 306 303 305 312 316 313 307 313 316 309 300 303 312 315 319 320 321 320 318 319 320 321 322 323 326 324 324 325
316 317 316 316 315 315 316 316 316 316 315 315 315 315 315 316 317 318 319 321 321 321 323 324 323 319 309 304 313 334 321 313 314 317 317 316 315 312 314 313 313 312 312 312 313 311 312 311 309 312 315 316 312 307 305 303 304 306 305 302 297 303 303 306 312 315 315 311 312 309 301 304 310 316 318 320 320 319 318 319 320 320 320 322 324 324 323 324
316 316 316 316 315 315 316 316 316 316 314 314 315 314 316 318 320 321 321 320 323 323 323 318 320 317 305 312 318 312 311 315 319 318 315 316 315 314 313 312 311 311 311 311 312 311 310 308 310 313 313 310 309 307 302 300 299 301 305 300 303 300 301 300 310 313 313 312 306 308 305 305 313 316 318 320 319 318 317 318 319 319 320 321 322 323 323 322
316 316 316 315 315 315 315 316 316 315 313 313 316 318 320 319 318 319 319 322 326 323 323 323 319 315 305 313 306 310 316 316 317 317 313 315 314 314 312 310 311 310 310 308 309 307 308 305 309 302 304 304 305 304 298 295 298 299 300 301 300 302 302 301 301 307 312 311 306 307 305 306 312 316 317 318 319 317 316 316 317 318 318 319 320 321 322 322
315 315 315 315 315 315 315 315 315 314 312 311 314 314 316 315 322 325 323 322 318 318 311 309 313 303 299 308 314 316 316 318 318 315 312 313 314 314 313 312 310 309 305 306 305 307 307 305 305 302 299 300 301 302 299 299 300 300 301 301 301 300 296 301 305 310 309 307 304 303 303 304 309 312 315 318 319 317 317 318 317 318 318 319 320 320 321 321
315 314 315 315 315 315 314 314 315 314 311 318 325 325 326 323 320 318 321 320 314 313 311 312 313 312 312 312 312 317 320 318 311 312 313 314 312 311 310 310 309 309 306 303 304 306 307 301 300 300 300 301 301 301 301 301 302 302 302 301 301 300 301 305 304 308 310 307 304 304 304 304 306 310 313 316 318 318 318 316 316 318 318 318 319 320 321 322
315 314 314 315 315 314 314 313 313 313 309 324 328 322 311 313 308 308 313 314 316 316 314 313 313 312 311 314 316 315 309 311 312 311 312 315 313 309 307 308 305 303 304 304 304 307 307 301 300 301 301 301 301 302 302 301 302 301 300 300 300 298 299 303 304 308 311 305 304 305 304 304 305 310 313 316 316 316 316 316 317 317 318 319 319 321 321 324
314 314 314 314 315 314 313 313 312 311 310 328 325 317 318 319 319 321 318 309 313 315 315 314 315 314 316 315 317 317 313 308 309 311 312 313 310 306 306 306 303 301 304 304 304 303 302 299 300 302 303 303 302 302 302 301 300 301 300 299 299 300 303 304 305 307 308 304 301 303 301 303 307 309 312 314 314 316 318 317 316 318 318 318 320 321 323 324
314 314 314 314 314 313 312 311 312 307 332 326 322 318 317 324 327 328 322 313 310 314 313 313 312 311 311 313 314 315 308 306 305 309 311 312 308 306 306 304 303 302 303 303 300 300 299 300 302 303 303 301 301 301 301 300 301 300 299 297 297 301 298 296 302 305 306 303 302 304 302 303 307 310 311 313 312 314 317 317 318 318 319 319 319 321 322 323
314 313 313 313 313 313 311 310 307 325 329 324 321 319 323 325 328 325 318 311 306 309 312 312 313 312 310 309 312 311 308 307 308 307 313 311 306 307 306 304 302 302 301 301 301 301 299 301 303 302 302 302 299 300 300 300 299 300 299 299 298 297 299 299 300 304 306 306 306 303 300 301 304 303 305 309 313 314 316 317 318 319 320 322 323 322 323 322
313 313 313 313 313 311 310 308 323 324 325 326 321 324 322 325 329 325 318 310 308 308 314 312 313 312 312 316 314 309 309 309 309 311 312 310 307 306 304 306 305 301 301 302 301 301 300 303 302 301 301 301 300 299 300 300 298 298 300 300 299 299 299 299 301 301 299 298 302 300 294 295 301 302 303 307 309 312 316 316 315 318 320 321 320 320 322 324
313 312 312 312 312 310 308 320 324 324 323 321 322 324 323 326 330 329 317 306 299 305 311 303 313 307 316 311 313 310 310 304 309 310 311 310 312 307 305 304 306 299 301 301 302 302 301 303 302 300 301 299 300 299 300 300 298 297 298 301 301 300 300 299 300 299 295 292 301 303 293 288 300 300 302 304 306 308 314 314 314 315 317 316 317 319 320 321
312 312 311 311 311 309 322 317 321 324 320 321 324 322 325 329 333 325 312 300 295 305 304 309 311 308 314 312 312 311 298 301 311 311 310 310 307 311 304 303 305 305 305 305 301 298 303 302 301 301 300 300 298 298 300 301 299 296 301 301 301 300 299 298 300 299 297 301 304 303 299 293 293 300 302 303 304 306 308 311 312 313 315 316 317 319 320 320
312 311 311 311 311 310 324 324 318 316 319 321 321 324 329 331 330 325 310 289 289 310 303 309 310 317 314 313 312 307 306 309 304 307 310 310 309 308 306 302 303 302 304 303 294 301 304 300 300 299 300 300 298 300 302 302 299 299 301 302 300 300 300 300 300 299 298 297 295 299 301 294 294 301 304 305 301 303 305 308 310 312 314 316 317 319 320 320
311 311 310 311 310 308 317 324 317 318 320 319 324 328 328 331 324 315 300 289 303 306 316 307 318 312 312 312 309 309 308 309 303 306 310 310 310 308 303 304 304 303 304 303 300 300 303 303 302 302 300 299 301 303 303 301 300 301 303 303 302 302 301 300 299 298 298 294 290 296 300 292 291 299 301 304 301 301 304 307 309 311 312 314 315 318 318 322
310 310 310 309 313 319 322 321 316 316 319 321 326 329 328 326 316 303 292 286 308 300 308 309 309 305 310 306 306 308 306 307 307 308 308 307 308 310 306 308 305 303 302 303 302 304 303 308 308 303 301 302 303 303 303 302 302 304 303 301 300 300 300 300 299 298 296 288 292 296 299 295 288 296 299 300 301 303 305 308 309 311 313 314 315 314 318 320
310 309 310 308 323 316 314 312 313 317 320 324 327 327 326 317 305 294 287 299 306 305 309 306 304 310 305 304 303 307 306 305 305 306 304 307 305 306 306 303 306 303 302 301 301 302 303 303 304 304 305 304 305 302 303 303 303 303 301 299 299 297 299 298 297 298 289 287 295 297 297 298 288 295 300 304 305 305 305 306 308 309 310 312 315 316 315 318
309 308 308 319 318 319 316 310 315 319 322 325 329 327 317 299 303 291 291 310 298 303 304 303 307 306 305 305 304 304 303 304 304 303 302 303 303 302 302 300 302 295 295 297 297 301 300 301 303 303 306 304 302 301 302 303 302 301 301 299 293 290 290 287 292 286 287 287 295 298 297 294 293 297 301 303 304 305 307 306 307 309 310 312 314 315 316 317
308 308 306 314 314 325 322 323 325 327 327 327 327 320 309 295 288 299 300 303 298 307 305 308 306 305 304 303 302 303 304 301 303 302 303 303 302 302 302 302 302 300 292 298 298 297 298 302 302 301 302 304 303 297 297 297 300 299 298 296 292 286 286 283 287 290 290 294 297 297 298 292 296 300 304 303 305 307 308 310 310 311 312 314 314 316 316 319
308 309 329 319 320 322 324 330 329 326 329 329 321 311 304 291 293 303 303 303 303 309 306 306 306 306 304 301 302 304 301 302 302 301 302 301 301 300 301 302 302 302 301 300 295 297 290 293 299 300 299 304 303 301 301 299 300 300 301 298 295 292 288 283 287 284 286 290 295 300 293 291 292 298 305 306 306 308 308 309 311 313 313 316 316 316 318 322
306 314 328 327 325 328 329 329 330 332 329 321 314 306 292 293 300 299 301 303 306 307 305 307 305 304 303 303 304 303 303 300 302 301 301 300 299 300 300 301 303 303 302 296 298 298 294 296 300 303 302 303 301 303 304 301 299 301 301 301 296 294 298 289 292 290 290 290 290 295 292 298 298 305 306 307 307 307 309 310 312 312 312 314 316 317 319 323
313 330 329 328 324 325 329 327 330 330 327 315 307 296 295 301 298 305 303 307 306 304 303 304 304 301 300 302 303 302 305 302 301 301 299 300 301 300 301 301 301 302 301 295 299 294 296 294 301 301 303 302 302 303 303 303 292 300 299 295 298 302 299 293 292 298 296 291 287 295 296 298 304 304 304 305 305 306 308 309 309 311 312 315 316 317 318 319
325 329 325 325 323 325 329 329 326 326 322 312 303 295 305 305 306 305 307 306 308 307 306 300 299 301 299 299 301 301 302 304 301 300 298 300 299 300 300 301 303 303 303 303 299 302 295 295 300 300 299 302 304 304 303 303 303 300 295 298 303 304 302 296 287 290 289 286 287 295 292 293 294 290 302 302 303 304 306 306 308 312 314 315 317 319 319 320
326 326 326 323 323 326 328 330 328 325 316 309 300 304 308 304 307 308 309 308 310 308 303 300 299 303 299 300 299 300 302 300 300 300 297 300 297 302 300 301 303 303 304 305 299 301 301 293 298 300 301 302 303 304 302 303 305 300 299 304 297 291 290 298 291 284 284 284 286 291 293 294 294 295 299 300 302 304 305 306 307 308 310 312 315 318 320 322
325 325 318 322 326 325 327 330 326 319 312 303 302 299 306 306 308 308 310 310 309 307 303 301 301 302 304 299 300 302 301 299 300 300 296 299 296 301 301 302 302 304 303 303 302 303 303 293 296 301 301 302 303 302 294 299 303 304 304 301 304 299 295 291 291 294 290 285 285 288 292 288 297 298 300 300 303 305 305 306 307 308 309 310 312 314 318 321
322 315 314 327 325 326 327 328 322 315 309 298 302 305 310 306 307 308 310 312 307 307 304 304 304 301 302 301 302 300 302 301 301 300 299 300 298 303 302 304 302 303 303 304 302 305 299 302 290 298 302 301 296 300 298 299 297 299 299 298 300 300 303 299 299 293 291 287 287 286 285 292 299 302 302 302 304 306 306 306 308 309 311 313 315 319 320 320
323 319 316 327 325 327 328 325 312 307 306 308 310 307 308 307 309 309 309 310 311 310 307 306 305 301 302 302 300 302 301 302 301 300 299 299 300 296 304 304 305 304 306 304 302 303 296 299 292 298 298 297 298 302 301 301 301 300 299 297 299 297 294 290 288 298 295 291 286 286 285 294 301 304 304 305 307 307 307 307 308 309 310 316 320 321 322 321
316 307 314 325 327 328 321 307 308 310 308 305 305 309 307 311 310 308 309 311 309 308 309 308 305 305 303 302 302 301 302 301 301 301 299 300 300 302 304 307 306 306 305 300 303 307 306 303 299 292 297 298 300 302 305 304 303 301 301 299 303 300 299 294 286 291 296 295 296 294 289 291 304 306 307 308 308 307 309 309 308 309 312 315 319 320 322 323
315 313 322 326 328 324 313 306 309 303 307 308 308 308 309 309 309 308 308 309 307 307 308 307 305 304 304 305 302 302 302 300 300 300 300 301 301 303 306 311 307 308 308 304 304 306 308 301 296 297 300 301 303 304 303 303 305 302 302 303 301 298 300 298 296 298 293 294 291 291 288 293 305 309 309 311 311 312 312 310 309 309 311 316 317 319 320 321
315 315 316 322 328 325 312 297 299 302 307 310 311 309 310 311 311 308 307 308 308 307 307 306 305 306 304 305 305 302 304 296 301 301 300 301 301 306 308 311 310 306 306 304 301 310 296 302 297 292 292 295 297 299 300 303 304 301 300 302 302 302 301 302 301 301 292 294 294 290 285 291 304 309 308 307 308 308 308 310 313 310 312 314 317 318 320 321
315 317 317 318 323 322 309 310 306 303 307 308 309 307 309 310 312 311 309 306 308 308 307 306 306 306 304 305 304 304 305 303 300 303 302 302 303 306 307 309 310 307 309 311 307 309 300 299 297 290 287 284 284 286 289 293 297 300 301 300 301 299 300 299 292 295 290 295 296 291 290 298 303 306 306 306 306 306 308 309 312 312 313 313 315 317 320 320
311 299 311 312 317 315 312 315 313 309 306 307 300 307 310 307 310 311 310 307 308 308 309 307 306 306 304 304 303 303 303 304 303 301 302 301 303 304 305 308 309 308 308 308 308 309 300 303 301 298 294 291 294 298 301 301 300 296 299 299 299 301 300 300 298 293 290 294 292 297 297 297 300 302 303 304 306 306 306 307 308 309 311 314 315 317 317 319
313 306 304 301 312 311 310 312 311 312 304 311 298 308 305 307 307 308 309 307 308 309 308 308 305 304 304 304 302 302 303 303 304 302 302 302 303 304 307 306 310 310 312 308 308 308 303 298 301 300 300 299 301 300 301 300 297 299 298 298 300 300 300 299 293 292 299 295 290 298 300 297 299 302 303 304 305 306 307 307 308 310 312 313 313 314 315 315
305 308 311 312 306 301 303 303 311 309 310 313 306 309 306 305 306 302 307 309 310 310 306 307 307 306 305 304 304 298 301 302 303 298 304 303 303 305 304 306 307 309 312 308 309 306 302 294 300 300 300 301 301 300 301 300 300 299 299 299 299 300 300 298 298 299 300 293 291 298 300 299 301 303 305 306 306 306 307 309 311 312 312 312 312 312 312 314
313 311 311 313 306 307 309 308 310 310 310 310 306 309 306 305 304 306 307 307 307 308 307 297 304 306 306 306 305 302 303 298 296 303 303 303 303 304 303 305 307 309 307 307 307 309 303 298 301 301 299 300 301 301 301 299 300 299 299 299 300 300 300 300 300 301 300 299 300 300 300 300 302 304 305 306 308 308 309 311 311 310 310 311 311 312 311 311
309 309 306 311 312 308 309 310 309 310 307 306 300 307 307 306 305 306 307 306 299 305 308 305 305 307 307 306 305 303 304 304 304 300 304 304 303 305 303 304 303 307 307 305 306 310 302 294 300 302 298 298 301 301 300 300 299 298 299 300 300 300 300 301 300 300 300 299 300 300 299 298 304 307 307 308 309 310 310 308 309 310 311 311 311 311 311 311
314 316 317 309 305 306 308 308 307 307 304 306 304 307 307 306 306 306 306 308 306 305 307 306 308 307 308 307 306 305 308 307 306 306 307 306 300 306 302 303 306 303 306 304 305 307 304 297 303 300 293 295 300 299 299 300 299 298 298 299 299 299 297 300 297 301 299 297 299 299 298 298 304 307 308 308 308 308 308 309 309 310 311 311 311 311 311 312
318 317 316 313 303 303 306 306 306 304 299 308 310 307 308 307 308 307 300 306 308 308 308 308 310 309 306 306 304 307 310 309 309 310 310 310 310 308 309 308 307 305 304 304 306 302 304 301 296 296 292 292 299 299 298 298 297 293 296 300 300 300 300 301 301 302 301 301 296 292 296 303 305 306 305 306 307 307 308 308 310 311 312 312 312 311 311 312
Wind_Speed
14 14 14 14 14 13 12 12 12 11 11 10 9 9 8 8 9 9 9 9 9 9 9 9 8 8 7 7 7 7 9 7 5 6 4 5 4 3 3 4 4 5 7 5 4 5 4 4 6 6 8 8 5 6 6 4 2 5 7 6 5 3 8 8 5 2 4 6 5 5 4 2 5 5 6 6 8 10 11 11 11 13 15 12 12 12 14 13
14 14 14 13 13 13 13 13 12 11 11 11 10 9 9 9 9 9 10 9 9 9 9 9 8 8 7 7 7 6 8 7 4 5 8 3 4 3 4 4 3 5 7 4 1 2 3 4 4 8 7 8 6 4 7 5 5 7 4 5 5 5 7 4 5 4 2 4 7 4 4 3 6 2 4 2 7 7 9 9 8 14 13 12 11 12 15 12
14 13 14 13 13 13 13 13 13 12 12 11 10 9 9 9 9 10 10 10 9 9 9 9 8 7 7 6 4 6 7 7 4 9 5 5 5 3 2 2 3 4 6 4 2 3 4 2 6 7 6 5 9 6 9 6 7 2 5 6 2 4 7 3 2 3 5 3 6 5 6 6 5 3 3 1 6 4 5 6 7 9 11 11 11 12 15 12
14 15 14 14 15 14 14 13 13 12 11 10 10 9 9 9 9 10 10 9 9 9 8 9 8 6 6 7 3 8 7 8 8 5 7 6 5 3 2 0 3 6 2 2 2 2 0 3 5 5 6 6 7 5 9 7 8 6 7 5 3 5 4 6 1 2 4 4 6 6 8 8 9 7 2 6 7 6 7 5 6 11 12 12 12 11 14 13
14 14 15 15 15 14 13 13 13 12 12 11 10 9 9 9 10 10 10 9 9 9 8 8 8 7 5 6 6 5 7 6 6 4 7 8 6 3 3 3 5 3 2 1 3 2 3 4 6 3 5 5 8 8 6 7 6 3 6 3 4 2 5 6 2 3 2 3 5 6 5 8 8 8 9 5 2 6 7 5 10 11 12 12 11 11 13 12
15 15 16 15 14 14 14 13 13 13 12 11 10 9 9 9 10 10 10 9 8 8 8 8 7 7 5 2 6 6 6 4 2 3 6 7 6 5 4 3 4 4 2 3 3 1 5 5 8 5 4 6 8 7 7 6 6 7 4 2 2 4 4 5 3 4 1 6 7 5 7 7 7 9 10 11 10 8 6 8 9 13 10 11 10 10 13 12
16 16 15 15 14 14 14 14 14 13 12 11 10 9 9 9 9 10 9 8 8 8 8 7 7 7 7 7 6 6 7 9 1 6 9 7 6 5 4 5 6 4 5 4 2 1 2 4 5 5 5 6 4 2 6 7 6 9 6 3 3 3 4 4 4 4 5 6 6 6 6 6 6 10 9 11 9 8 9 9 8 8 11 10 10 10 11 12
17 16 16 15 15 14 14 14 14 13 12 11 10 9 8 9 9 9 9 8 8 7 7 7 6 5 9 6 6 4 8 9 6 6 8 7 7 7 7 5 4 4 3 6 6 5 4 5 4 1 3 2 5 4 7 8 7 5 5 3 5 3 4 4 5 6 7 8 7 6 7 9 8 9 8 10 9 9 9 9 9 9 8 8 9 9 9 11
17 16 16 15 15 14 14 14 14 13 12 11 10 9 9 8 9 9 9 8 8 8 7 6 5 5 3 5 3 8 8 4 4 7 11 10 8 8 8 4 3 3 3 3 4 5 5 5 2 6 6 5 2 5 7 8 8 3 5 4 4 5 5 5 7 7 6 5 4 7 10 9 11 13 11 8 9 8 8 8 9 9 9 9 9 9 9 10
17 17 16 16 15 14 15 14 14 13 12 11 11 10 9 9 8 8 8 8 7 8 7 6 6 4 5 6 4 4 5 4 2 6 8 8 7 7 7 5 2 3 4 5 3 7 8 5 6 2 6 8 1 5 3 6 5 7 6 6 7 7 6 6 6 7 7 5 3 4 8 8 5 6 4 5 7 8 8 8 7 8 8 8 8 9 9 10
18 17 16 16 16 15 15 15 14 13 12 11 11 10 9 8 8 8 8 8 7 6 6 5 5 7 7 7 2 8 3 3 2 4 7 7 7 7 4 3 3 4 4 1 5 6 5 4 3 2 2 5 7 6 1 4 7 8 9 8 7 6 6 7 5 5 4 6 5 3 7 7 5 2 6 6 6 7 9 8 7 7 7 8 9 9 9 9
18 17 16 17 16 16 15 15 14 14 13 12 11 10 9 7 7 7 7 7 7 7 5 4 4 5 7 6 7 7 3 2 1 3 5 7 6 4 4 3 3 5 5 5 7 5 4 4 3 4 3 5 6 8 7 6 7 10 10 8 8 8 8 5 4 3 2 5 2 1 5 6 4 4 4 5 5 6 6 6 7 6 6 7 9 8 8 8
17 17 16 16 16 15 15 16 15 14 13 12 11 10 9 6 5 6 5 6 4 5 4 2 6 4 5 3 7 5 1 1 2 3 4 5 6 4 2 2 4 4 4 5 5 4 3 4 5 2 3 1 4 2 6 5 7 7 5 7 9 8 6 4 4 5 5 5 3 2 7 6 5 7 5 5 6 6 7 6 6 6 5 5 7 7 8 8
18 17 17 17 16 16 16 16 16 15 13 12 12 10 7 6 5 5 5 6 2 3 2 3 5 5 5 8 4 3 1 1 3 6 6 4 6 3 3 3 3 3 1 2 3 2 2 2 1 7 3 1 6 9 8 6 6 5 5 7 6 8 7 4 3 6 5 4 2 3 3 4 4 6 5 5 5 6 6 5 6 6 5 5 4 6 7 8
21 21 18 17 17 16 16 16 16 14 13 12 10 7 5 5 5 6 3 4 4 2 3 5 5 4 4 7 2 4 4 2 5 3 0 5 4 4 4 3 2 1 1 0 3 1 1 2 6 2 5 6 10 8 6 4 4 6 8 6 3 5 7 6 2 3 3 6 1 2 2 4 5 7 6 6 6 6 5 5 5 4 5 5 4 5 6 7
23 22 21 18 18 17 16 15 14 14 12 11 8 4 2 3 4 4 6 2 4 3 5 5 4 6 3 7 5 6 5 2 4 4 2 4 3 4 4 3 1 3 3 4 2 2 2 3 2 6 8 7 7 3 5 5 5 5 6 7 4 5 8 9 5 5 0 5 2 5 1 3 4 7 8 7 6 6 5 4 4 4 4 5 4 3 4 6
23 22 21 19 18 17 16 14 13 14 12 10 5 4 5 6 7 6 6 7 4 4 4 3 3 3 1 5 2 4 3 4 3 1 1 0 4 4 4 2 3 2 4 7 5 5 4 3 3 5 3 3 1 4 4 3 3 4 3 5 9 4 5 6 10 5 5 3 2 3 4 6 4 8 9 8 7 5 5 5 4 4 5 4 3 4 5 5
22 22 22 19 19 18 17 15 13 12 12 8 6 2 4 5 8 10 4 5 2 2 3 3 4 4 9 5 2 5 6 5 4 5 3 1 2 2 2 2 2 2 5 7 8 8 5 4 6 2 3 2 4 2 4 1 1 3 3 4 5 10 10 4 6 9 7 4 4 2 5 4 6 7 8 8 7 5 4 4 5 5 4 4 4 4 6 5
22 23 21 20 19 18 16 15 14 10 11 8 2 4 3 4 5 5 4 3 4 4 5 4 2 4 7 6 2 4 3 5 5 5 3 2 3 2 2 2 3 6 5 7 7 4 5 5 5 5 4 3 2 2 2 4 3 3 5 4 5 5 8 5 5 3 7 7 6 4 4 3 5 5 6 7 7 6 5 4 4 5 5 5 4 5 5 6
22 22 22 21 20 19 18 17 14 11 8 5 5 3 4 4 4 4 4 4 2 7 7 5 2 2 4 0 4 6 4 2 4 3 2 2 4 4 2 3 3 3 3 1 5 1 3 5 5 1 4 2 2 3 4 3 1 2 3 4 4 4 5 8 0 4 4 6 7 3 3 4 3 2 4 6 6 6 6 6 6 5 5 6 6 6 6 7
23 23 22 22 21 19 19 17 15 11 7 6 5 4 2 5 5 2 6 2 3 3 4 2 4 5 5 6 5 6 2 6 1 4 3 1 3 4 2 4 4 6 3 2 2 3 6 3 3 6 5 3 2 0 2 2 2 4 4 5 7 2 3 7 5 3 3 7 3 2 5 6 4 2 4 6 8 8 7 7 7 7 6 5 6 7 8 8
22 22 22 22 21 20 18 17 15 13 7 6 2 4 5 6 4 4 5 4 4 2 2 2 2 4 1 4 3 4 7 2 7 5 4 3 2 8 5 5 3 3 5 4 5 7 5 3 7 5 3 1 1 2 2 2 5 5 3 1 3 7 4 4 2 2 2 4 2 2 6 4 2 4 5 8 9 7 7 7 6 7 8 7 7 8 8 8
21 22 22 21 20 18 18 16 15 10 4 1 5 4 6 4 3 2 5 4 2 2 1 1 3 1 4 3 3 4 5 2 3 5 4 4 1 5 2 3 2 3 5 4 1 2 3 5 7 4 1 2 3 3 3 4 4 4 2 1 3 5 5 7 4 3 4 4 3 3 7 4 3 4 6 7 8 7 7 8 7 7 7 8 8 7 9 10
21 22 21 22 21 20 18 15 13 7 2 5 7 7 3 3 3 4 5 2 4 5 3 3 3 3 4 4 3 5 4 4 5 5 4 5 4 3 4 3 3 5 3 2 3 3 8 8 4 2 1 4 2 4 6 5 4 2 2 2 1 4 5 5 7 4 2 4 4 5 7 6 5 6 6 8 9 8 7 7 8 8 7 6 7 7 9 11
21 22 22 21 21 19 18 16 3 2 0 3 6 3 3 4 3 4 5 3 4 4 1 4 2 4 5 2 3 5 3 1 2 5 4 5 3 5 4 1 5 3 4 3 4 5 6 5 2 2 1 3 3 6 6 3 1 3 2 4 2 5 6 3 6 7 6 6 7 7 7 5 5 6 6 4 7 9 8 9 9 8 8 8 10 11 11 11
21 22 21 20 20 19 18 3 2 1 4 2 4 3 4 4 2 4 5 4 6 5 5 3 3 3 3 2 4 1 6 2 5 3 3 4 4 6 2 2 5 6 5 4 3 7 6 3 1 3 3 2 4 3 4 5 1 2 4 2 2 6 5 3 7 7 5 3 6 7 7 2 5 5 5 6 8 8 8 9 9 7 8 10 11 12 12 13
21 21 21 20 16 16 4 2 3 2 5 5 3 4 4 3 2 5 4 3 2 3 3 6 4 5 4 5 5 3 7 6 4 4 3 1 4 2 7 5 4 4 2 1 6 6 2 2 2 1 4 4 3 7 6 6 4 1 3 3 4 6 6 4 5 5 4 4 2 6 6 7 6 3 6 6 9 9 9 10 9 8 9 11 12 12 12 13
21 21 20 19 15 10 3 3 2 2 6 4 4 4 4 1 4 4 4 2 4 3 1 2 4 1 4 5 2 4 7 3 6 5 2 1 5 5 5 4 4 5 4 5 2 7 2 1 1 2 2 7 1 12 6 4 3 4 4 5 6 6 6 5 5 5 4 4 4 6 4 8 6 4 4 5 8 9 10 10 10 10 10 11 12 11 13 14
21 20 19 15 13 6 5 3 4 2 4 4 5 3 0 3 5 4 3 1 2 1 1 4 2 2 6 2 2 2 1 2 5 5 2 2 4 5 1 5 1 3 1 6 4 8 3 4 3 4 7 2 9 7 5 5 5 7 3 3 2 3 5 5 4 6 2 5 4 3 6 6 6 2 4 4 6 6 5 6 8 10 11 11 9 10 12 13
21 19 17 12 7 3 2 2 1 4 3 5 4 1 3 4 4 4 3 2 3 4 3 4 5 5 6 4 3 1 2 4 2 1 2 2 3 3 5 2 1 4 5 4 5 8 5 1 3 4 4 6 5 5 4 4 5 5 6 6 6 6 5 5 5 5 4 5 4 1 4 6 5 4 3 1 2 5 4 2 1 6 10 10 13 13 11 10
19 18 14 8 1 2 2 3 4 2 4 5 4 4 5 5 3 1 2 4 3 5 3 1 4 3 3 3 3 4 2 2 4 3 6 4 6 2 5 5 3 4 4 4 4 6 6 6 6 4 1 1 1 5 4 2 2 5 5 3 4 3 3 4 4 5 5 3 4 1 3 5 7 2 2 2 0 2 3 4 1 2 7 10 10 11 14 12
19 16 10 3 3 3 3 3 3 4 4 6 4 4 4 3 3 1 2 3 4 4 3 4 3 5 2 1 2 3 1 4 2 3 3 2 2 3 2 4 2 5 6 3 5 5 7 4 6 6 2 5 3 6 6 4 4 6 7 6 6 2 3 4 5 5 4 3 5 2 2 5 7 7 8 9 6 4 4 6 5 2 3 7 10 11 10 11
19 15 5 2 2 2 1 4 3 3 4 4 5 4 5 1 2 2 4 2 2 4 3 3 4 5 3 6 4 2 1 2 3 2 1 2 3 4 3 3 4 5 5 3 1 5 5 5 6 6 4 2 5 6 4 6 7 6 6 6 7 4 4 5 4 3 6 2 2 0 1 7 6 6 1 4 4 5 3 3 3 3 4 4 5 9 9 8
17 12 2 1 2 3 5 4 2 3 4 4 5 5 2 1 3 3 1 3 4 1 1 2 3 2 3 3 5 4 4 4 3 3 5 3 5 3 5 3 2 3 4 2 4 1 2 6 4 3 3 3 6 6 8 8 2 4 4 7 5 6 6 4 5 5 4 4 2 3 5 3 4 4 3 3 2 3 4 4 3 3 4 5 4 5 7 9
17 7 2 2 3 2 3 3 2 3 4 4 5 4 1 3 2 3 3 3 3 1 1 1 3 4 5 3 4 4 5 3 2 3 4 4 2 2 1 3 3 5 0 6 4 4 3 3 6 5 4 1 2 2 4 4 6 2 4 4 8 6 2 7 3 6 7 5 5 5 4 3 5 5 6 5 6 7 3 4 3 3 4 6 6 6 7 9
11 3 3 1 3 6 4 1 2 4 4 4 4 1 1 3 3 1 4 2 1 2 2 4 2 4 1 4 3 1 3 4 4 4 3 1 5 1 4 3 2 3 4 3 3 3 4 3 5 5 2 0 1 1 1 4 6 2 5 7 2 4 6 3 2 2 1 4 6 0 6 5 2 6 1 1 2 1 3 2 3 3 5 6 6 6 7 7
2 2 2 2 4 7 3 2 3 5 4 5 3 2 3 4 6 4 2 2 4 4 3 5 4 5 1 3 2 4 4 4 2 5 4 2 4 4 1 5 4 3 2 7 2 2 7 2 6 4 4 4 1 2 2 2 6 3 7 3 4 2 5 3 6 1 3 6 3 3 7 5 4 1 2 3 2 3 3 2 2 3 4 6 5 6 7 7
3 1 1 3 7 6 3 2 4 5 4 4 2 5 1 2 1 3 2 2 3 3 3 3 4 6 2 1 3 4 2 6 4 5 2 1 2 3 1 1 4 5 5 3 5 2 3 5 8 2 3 6 4 4 5 3 1 6 7 3 8 2 3 2 2 6 5 5 4 5 4 7 5 3 0 2 1 1 1 1 1 4 4 4 5 5 5 6
2 3 3 5 6 7 2 2 3 5 5 3 5 4 2 4 3 2 1 2 2 3 3 5 3 3 4 1 2 3 6 2 1 0 3 3 2 4 3 4 3 4 2 3 5 2 2 5 3 6 4 4 6 5 5 4 5 1 2 5 1 6 8 5 3 5 3 7 6 6 4 3 2 2 2 2 0 2 4 4 3 2 2 3 4 5 6 5
4 5 3 4 8 6 1 3 4 4 5 2 4 4 2 4 4 3 1 4 3 4 5 2 2 3 3 6 5 3 4 4 2 3 4 2 1 4 4 1 5 3 3 3 2 1 1 0 4 6 5 5 6 4 3 4 4 4 5 5 3 4 2 7 5 8 7 6 6 6 6 4 1 3 1 4 3 4 4 5 5 4 2 1 0 1 2 4
2 3 4 5 9 6 3 5 2 1 3 4 4 6 4 4 3 3 1 2 0 3 4 2 1 3 3 3 5 3 1 2 1 1 2 4 4 3 6 7 6 3 2 2 4 1 2 4 5 3 5 5 4 6 5 6 5 7 7 7 6 5 6 5 7 4 8 7 6 6 7 6 2 2 2 2 2 2 3 5 5 4 3 1 1 2 3 3
4 4 3 8 9 6 4 2 3 2 1 4 4 1 5 1 3 4 3 4 3 2 1 1 2 2 2 5 3 3 3 1 1 1 2 2 4 4 4 2 3 4 5 2 3 4 4 4 5 5 5 3 4 4 2 2 3 5 6 6 4 8 7 8 8 5 4 8 8 8 9 7 1 2 2 1 0 2 3 4 5 5 4 3 1 1 2 3
2 3 2 6 8 6 3 4 2 1 2 4 0 2 2 2 2 3 4 2 2 1 2 1 2 1 3 3 2 2 4 3 4 3 2 2 5 6 4 4 2 2 6 2 3 3 3 5 6 7 5 2 4 5 5 5 5 5 3 2 5 6 6 8 8 8 7 6 6 6 8 7 5 5 5 3 1 1 2 3 4 5 5 4 2 1 2 3
2 2 2 5 6 4 4 2 3 3 5 3 2 5 1 3 1 5 2 4 2 3 0 2 3 2 3 1 2 3 3 1 1 1 4 1 4 3 4 2 4 2 5 3 4 3 3 1 5 5 6 5 6 5 5 4 6 2 3 2 3 2 3 4 7 6 8 11 12 8 10 4 8 2 4 2 2 2 3 1 2 5 4 4 3 1 1 2
0 1 1 4 7 3 0 3 2 3 4 4 5 6 5 3 4 5 3 4 1 2 2 3 2 2 2 0 1 2 2 6 1 3 3 1 4 4 3 3 2 3 4 3 3 0 4 3 4 5 6 6 6 6 3 1 5 5 3 3 3 5 5 6 6 7 10 9 11 8 9 9 3 5 5 5 5 4 6 3 2 3 4 5 5 3 1 2
2 1 2 4 4 5 5 1 3 2 6 6 3 3 2 4 3 2 4 5 3 3 3 3 3 2 2 3 2 1 1 1 4 1 2 1 3 4 2 2 2 4 5 4 2 2 2 2 5 6 7 8 8 8 2 5 7 8 4 2 7 5 4 6 7 7 8 9 10 10 12 12 11 8 6 9 9 9 7 7 8 7 6 6 5 4 3 3
2 0 1 2 4 5 5 3 3 1 3 2 1 1 3 1 3 4 2 1 3 1 2 1 2 3 3 2 2 1 0 1 0 4 2 4 1 2 3 2 4 3 8 4 2 3 4 6 5 5 7 9 9 8 5 4 8 9 10 10 8 7 6 7 7 9 8 8 11 10 11 14 12 11 10 9 8 9 10 10 10 9 8 7 7 7 6 6
2 2 1 4 3 3 3 3 4 5 3 2 3 1 2 2 3 1 3 2 1 1 2 4 3 2 2 2 1 1 1 2 2 2 2 2 4 3 5 7 6 6 7 4 3 4 6 4 1 4 7 7 6 7 4 6 8 9 11 11 11 10 9 10 11 12 13 12 13 12 11 11 10 10 10 11 12 13 13 12 11 10 10 10 10 10 10 8
3 3 3 2 1 4 5 3 3 3 5 3 3 1 3 1 3 3 3 0 3 2 3 0 1 0 1 2 3 3 1 3 0 1 4 5 4 6 6 4 3 3 7 4 3 1 4 7 3 4 8 7 9 10 6 9 9 11 11 12 12 12 13 13 14 13 14 16 16 15 16 19 15 14 13 14 12 12 11 9 9 10 9 7 7 8 10 10
3 0 4 1 3 4 2 1 1 2 3 1 0 3 2 1 2 2 2 2 1 1 1 4 1 2 1 3 4 5 2 4 5 5 2 6 5 4 6 7 5 3 5 4 3 2 6 1 5 5 7 9 9 5 8 9 9 12 12 13 13 13 13 13 13 13 14 15 16 17 18 19 13 12 14 11 8 8 9 10 10 9 8 7 7 7 8 8
2 3 3 2 5 3 0 1 3 2 2 3 2 3 2 2 3 3 1 3 3 3 5 5 5 4 1 4 4 6 3 4 5 6 5 3 6 2 5 2 3 7 5 5 5 3 4 4 2 5 6 8 8 8 7 8 10 13 15 14 13 11 11 9 8 8 9 10 11 12 12 10 8 5 4 5 7 8 9 9 9 9 8 8 7 8 7 7
1 0 2 4 1 1 0 2 1 3 2 3 3 3 1 4 3 3 0 2 4 7 6 5 4 6 2 4 4 4 7 8 7 7 5 5 5 5 5 6 5 7 6 7 4 8 6 7 4 4 7 7 4 3 7 10 11 12 13 9 5 4 7 8 9 8 9 9 8 6 9 5 7 5 7 6 6 7 7 7 8 9 9 8 8 8 8 7
Wind_Direction
350 349 346 343 339 336 331 331 332 331 330 331 330 326 322 313 306 301 299 298 298 296 301 301 301 300 299 300 305 312 305 265 225 223 212 51 47 132 65 85 131 178 221 227 172 206 168 165 167 169 192 191 171 205 114 194 189 202 211 229 199 160 218 132 137 75 114 143 169 143 122 123 120 119 93 121 96 91 86 77 80 75 74 84 96 101 101 112
352 348 346 343 339 335 333 332 332 330 331 332 332 330 322 313 308 304 302 303 302 305 305 305 300 296 296 300 299 315 295 262 217 76 46 59 130 98 85 131 170 211 249 234 264 216 201 145 147 184 179 187 145 179 175 141 225 223 213 234 196 202 79 71 46 47 292 68 124 128 109 105 83 114 119 180 116 119 108 77 88 92 91 95 101 121 108 93
347 344 345 342 336 335 333 331 332 330 332 332 330 329 322 313 308 307 306 305 308 311 308 305 302 298 289 292 300 295 280 235 212 53 59 80 106 91 92 110 221 240 267 332 358 329 317 51 148 190 181 169 186 154 212 133 222 217 240 203 232 152 82 38 338 8 34 327 136 157 116 99 87 72 145 147 111 128 88 107 109 95 99 107 106 111 108 110
345 346 342 339 341 339 334 330 330 330 329 329 330 326 320 314 310 308 307 309 311 312 312 304 302 297 293 282 304 292 254 241 71 50 79 105 99 98 103 148 261 247 285 344 332 284 148 163 163 221 164 188 163 179 193 141 234 135 243 226 147 120 211 103 352 359 27 228 145 148 122 93 68 62 39 116 126 89 86 54 66 101 112 114 117 114 102 96
341 340 340 343 342 338 332 330 329 326 329 328 328 323 319 313 310 308 306 310 314 313 314 308 300 296 282 282 283 250 260 229 67 52 96 108 111 140 163 208 249 262 298 61 205 158 217 182 175 169 212 134 166 181 198 152 263 143 245 4 8 68 233 70 43 4 56 114 132 149 140 98 100 64 47 21 91 79 52 103 94 103 111 113 129 122 113 118
342 340 342 339 335 334 333 331 328 327 326 324 323 321 315 312 307 306 307 310 312 314 311 306 301 294 283 249 257 239 258 73 85 72 104 129 141 161 184 206 273 275 242 252 301 189 217 168 197 171 150 153 159 189 146 191 191 211 166 210 31 14 4 47 61 55 201 140 149 127 97 106 92 81 64 63 69 91 82 88 92 91 91 106 115 117 113 114
340 339 337 336 334 333 334 332 327 326 324 321 320 318 311 307 307 304 308 313 311 309 308 302 296 298 299 290 222 246 86 90 260 102 120 145 148 165 169 197 214 240 265 294 14 51 47 149 224 93 123 104 136 79 153 177 202 278 129 133 75 43 52 48 58 84 100 111 103 100 123 113 114 87 77 77 84 93 101 96 96 115 108 105 108 116 120 118
340 338 336 333 333 331 330 329 329 324 321 319 316 312 308 303 302 305 307 310 308 305 300 299 301 292 316 264 245 126 92 76 66 122 134 139 170 168 196 208 230 260 320 15 352 37 346 61 81 217 46 57 112 159 149 180 196 216 130 149 97 87 91 90 94 104 107 101 107 111 92 76 86 97 98 84 93 100 102 103 102 108 120 113 108 117 127 121
336 335 333 332 329 330 330 327 325 324 319 316 313 307 303 302 299 301 301 306 304 298 299 300 294 287 244 282 260 107 75 41 40 146 157 166 180 178 206 217 190 291 358 6 5 350 301 72 63 339 100 116 158 136 181 195 174 229 98 137 139 118 112 108 112 109 103 104 122 110 89 92 97 96 73 86 99 105 112 113 113 116 116 118 118 125 125 118
334 334 333 332 331 330 327 327 324 322 319 314 311 304 299 294 294 293 295 295 295 291 292 300 292 266 256 259 233 104 82 27 171 170 185 180 174 189 215 275 258 310 326 35 359 11 26 33 25 72 89 88 152 79 141 259 72 137 128 126 122 112 122 122 126 111 98 94 105 108 106 109 120 265 118 80 110 119 119 115 123 118 118 118 117 124 128 120
333 331 333 332 333 331 328 325 323 319 319 314 305 301 292 290 288 287 288 289 286 287 290 290 317 272 287 273 270 90 64 253 139 189 188 186 185 213 249 223 260 300 328 26 40 17 16 353 329 94 224 81 99 92 145 66 125 131 123 115 113 126 118 116 122 113 133 90 69 108 110 118 113 57 66 117 120 140 127 125 132 129 118 129 127 125 125 127
331 331 332 334 333 331 328 323 321 321 317 312 305 297 293 286 283 275 277 284 282 278 276 290 275 282 281 275 66 68 152 336 272 185 194 199 217 271 317 277 264 314 323 354 54 31 354 340 272 286 71 218 95 122 92 137 139 141 147 128 123 132 118 113 125 135 168 95 36 53 160 150 116 96 110 124 143 145 143 145 140 140 133 134 132 131 134 129
329 332 332 333 335 332 327 327 324 323 318 310 305 294 287 282 268 261 260 265 259 264 271 233 264 264 288 152 64 95 186 13 167 182 204 223 264 253 262 270 274 298 321 320 29 45 333 288 293 63 59 49 95 336 118 164 131 153 171 132 154 144 125 124 143 140 145 77 1 259 216 112 79 117 142 160 164 160 154 152 147 144 148 138 137 136 128 124
332 333 335 336 336 334 331 329 328 324 318 314 305 292 279 268 246 242 232 253 317 279 195 224 268 267 266 85 108 122 176 220 158 182 203 220 251 227 204 206 251 280 305 319 45 36 286 284 7 85 45 61 104 130 145 121 187 165 109 200 158 177 134 125 152 146 136 98 21 275 263 109 127 124 139 163 167 169 165 146 149 159 156 128 139 141 129 122
342 339 335 337 338 336 332 332 327 325 324 317 312 298 261 234 228 217 220 200 280 219 211 240 244 266 177 90 150 110 93 240 197 31 274 220 250 239 176 183 213 236 306 358 88 83 270 230 224 170 86 94 132 164 129 146 160 135 167 198 151 194 144 147 144 177 181 149 194 310 279 100 140 137 160 166 166 183 178 165 159 166 158 146 141 146 136 127
342 341 338 338 338 338 334 331 329 331 333 334 342 336 227 195 174 175 192 325 140 187 215 247 199 280 150 127 100 131 204 208 56 8 44 266 280 313 4 307 19 151 194 131 116 141 193 221 16 98 125 156 183 156 131 156 146 179 247 126 178 223 159 172 193 163 359 158 169 268 235 102 156 141 163 163 165 181 174 173 148 153 183 171 162 140 134 138
344 341 339 335 338 337 336 332 331 331 336 342 324 69 88 121 130 136 140 150 173 214 262 317 330 283 235 64 184 202 60 10 338 208 9 83 295 327 300 258 189 132 120 129 154 167 161 185 138 166 220 211 188 178 204 161 178 178 253 149 180 143 129 222 155 212 172 272 188 156 249 155 120 160 158 172 187 192 195 173 176 182 188 185 194 167 151 157
343 341 338 335 335 337 336 333 334 332 333 336 347 22 128 139 144 135 152 209 170 235 240 274 303 229 104 220 179 28 331 321 327 342 328 53 276 215 277 249 161 179 166 141 157 201 159 154 223 86 139 165 213 218 285 333 212 156 196 175 163 164 203 128 201 160 203 200 258 177 251 148 138 156 170 174 180 190 206 204 185 195 191 189 185 172 157 153
343 341 337 336 334 335 334 333 332 333 327 311 308 74 104 198 217 260 244 170 218 186 191 137 235 273 65 71 352 280 321 335 304 269 142 196 145 171 149 232 259 222 173 221 103 234 168 155 212 181 175 182 214 233 289 358 310 177 209 189 176 182 187 210 93 99 212 213 233 224 243 172 156 166 171 179 179 188 191 204 201 202 182 185 180 180 173 170
342 341 339 336 335 335 335 333 331 331 331 258 204 194 202 207 198 173 198 227 318 15 1 26 331 296 233 212 3 345 289 238 233 105 97 107 197 177 203 260 188 221 236 360 110 95 287 206 194 214 81 97 45 355 331 317 252 140 205 200 190 212 167 91 98 71 229 252 242 267 280 267 255 211 175 181 174 196 202 202 211 206 202 190 182 182 181 181
342 341 339 336 334 333 332 330 328 329 309 264 269 254 8 15 300 85 353 55 44 356 335 15 339 331 344 332 327 336 302 162 336 106 62 60 240 262 152 245 213 185 62 83 328 87 245 216 63 47 33 20 47 31 222 122 202 183 181 206 158 297 221 134 187 127 106 255 148 222 259 243 253 235 191 178 200 206 207 214 209 207 203 209 192 193 184 179
340 341 338 336 332 333 329 328 322 322 284 260 298 68 76 38 10 13 300 152 130 70 260 312 326 267 174 286 322 312 275 240 152 103 123 265 234 270 98 289 256 37 131 161 174 190 212 62 69 34 35 74 129 166 220 144 168 200 206 105 241 164 95 118 122 166 141 232 217 253 257 237 249 252 216 203 214 209 201 216 230 207 196 197 198 192 185 176
341 339 340 334 333 329 328 320 320 318 292 64 68 77 53 6 331 301 257 297 129 91 216 137 195 63 103 109 69 232 264 14 28 61 54 295 249 26 328 259 159 122 167 222 216 137 186 105 53 39 316 165 157 205 185 161 190 181 182 202 286 96 182 161 165 190 196 251 306 266 267 257 224 242 245 230 231 218 203 210 206 217 215 201 197 195 184 180
340 339 337 336 331 329 320 318 295 285 52 36 62 54 39 337 302 207 232 295 102 126 26 55 355 25 40 353 54 294 317 79 268 96 54 319 13 343 259 16 163 212 103 67 324 347 38 52 35 46 215 261 195 193 192 191 167 194 235 255 221 172 210 320 134 175 176 217 270 273 246 241 209 228 221 226 228 234 214 220 222 208 212 199 206 207 195 190
338 338 337 333 332 325 319 312 267 53 44 217 81 64 351 320 290 229 263 168 204 117 172 155 259 52 38 198 195 274 79 203 2 17 6 325 28 246 54 338 273 116 100 74 159 185 122 55 350 267 251 249 228 192 226 274 179 157 254 313 66 178 165 163 144 187 202 211 207 245 255 226 170 215 233 198 202 222 218 226 227 214 203 192 201 203 193 194
338 336 336 333 330 326 308 287 105 340 242 45 46 15 333 311 228 221 257 218 132 64 204 134 269 103 294 114 338 329 272 140 30 30 353 10 321 327 194 152 320 116 131 193 328 23 47 99 290 304 289 255 243 278 106 278 251 244 132 230 207 179 175 160 189 218 202 259 133 211 274 329 161 222 210 234 237 227 203 228 237 215 203 198 204 197 196 190
337 335 334 332 330 331 285 141 68 229 223 107 62 339 325 291 200 169 245 167 139 25 351 64 271 80 299 26 318 257 229 86 113 97 143 98 308 106 278 97 163 82 33 331 213 136 170 114 198 247 243 244 187 206 164 262 301 44 81 195 218 202 191 182 222 225 319 39 168 234 241 285 295 197 191 221 245 245 233 224 224 218 203 194 195 200 199 192
334 333 332 328 328 325 351 327 221 217 43 44 348 325 313 138 180 207 255 190 71 235 22 106 22 352 290 360 251 287 20 341 219 94 22 39 257 219 279 60 331 117 149 243 242 87 295 120 211 203 230 246 48 32 70 263 310 69 140 218 208 218 221 218 228 239 275 289 240 199 200 261 254 131 156 189 242 243 246 236 223 214 210 176 200 197 196 194
334 331 330 325 320 302 274 317 314 52 43 3 338 321 302 154 219 262 268 94 64 288 37 126 135 196 347 200 142 29 298 354 327 77 103 200 48 328 251 86 81 121 158 281 322 127 129 338 44 335 269 29 48 44 20 351 286 110 147 216 217 244 256 246 253 254 234 259 276 241 192 276 296 334 164 169 263 269 254 229 218 215 209 177 197 198 190 198
331 331 327 325 297 200 190 230 41 45 352 341 332 310 171 194 226 211 204 109 307 124 270 353 291 344 310 256 140 310 207 98 19 109 97 323 77 139 65 333 235 187 179 188 289 62 95 90 312 294 347 24 57 60 30 20 38 125 168 174 181 206 215 233 244 264 259 251 243 317 203 265 300 309 353 208 50 356 334 109 107 210 205 207 185 188 194 191
331 331 333 310 291 37 293 173 81 26 342 328 316 226 228 218 257 259 102 58 261 68 218 203 26 280 353 297 170 113 170 109 142 203 157 194 153 169 142 175 227 227 203 193 177 150 156 161 197 88 335 72 266 126 98 78 162 218 221 211 190 173 211 217 222 225 249 252 75 356 273 248 272 178 165 71 336 273 300 325 114 199 216 208 208 203 180 185
332 330 339 287 4 290 296 63 20 332 321 318 284 222 228 202 196 346 94 132 235 55 348 20 55 355 336 69 343 360 42 139 87 220 241 185 135 221 143 301 143 225 203 215 156 183 195 167 84 124 80 276 191 243 142 179 184 236 242 237 258 240 237 224 209 234 232 287 93 89 194 238 235 263 297 311 316 283 269 288 304 284 238 219 213 207 210 187
329 329 306 280 259 253 330 350 308 299 299 273 247 225 233 234 123 101 120 221 88 333 100 271 346 335 349 249 81 34 334 304 72 142 328 148 262 101 49 337 359 305 330 125 137 232 113 91 175 123 186 161 268 258 170 204 203 241 248 244 245 257 242 285 282 279 280 137 73 3 227 267 292 282 355 25 40 25 9 329 322 296 256 244 227 217 210 199
326 317 271 83 284 316 323 304 294 283 265 231 238 208 263 246 86 359 49 51 59 140 295 344 310 232 336 21 40 337 193 95 266 129 236 174 232 174 161 130 302 243 250 156 275 352 248 167 138 238 183 109 239 273 335 328 220 238 319 289 279 277 297 280 277 286 328 344 77 159 255 293 286 66 330 336 326 298 288 278 286 261 228 220 229 214 197 195
316 289 273 205 223 243 310 310 268 258 271 236 222 234 182 99 138 141 129 93 112 198 142 207 266 233 141 124 54 70 344 131 75 195 201 242 167 242 125 120 87 314 319 245 96 246 328 334 82 45 37 292 250 68 305 272 248 221 277 288 260 274 301 278 15 310 310 315 286 174 268 320 301 3 285 274 279 268 233 250 241 206 198 184 195 199 191 187
298 156 231 75 17 21 344 298 259 264 261 223 232 218 67 28 108 222 65 339 84 318 41 201 260 215 125 133 129 67 120 295 113 236 122 348 43 3 43 32 15 353 297 309 95 260 216 195 82 100 138 359 33 226 216 299 276 113 233 236 12 32 277 306 192 42 270 249 265 277 253 264 235 231 76 19 300 151 146 184 183 152 167 180 189 187 194 193
144 261 169 31 35 3 357 253 285 274 243 240 238 136 53 102 24 87 78 352 32 318 235 242 80 324 95 82 75 75 106 225 150 259 156 138 148 58 68 82 2 287 337 323 174 357 303 47 134 205 137 93 17 241 292 257 311 235 242 43 87 39 319 273 294 179 249 270 280 241 279 290 291 145 194 218 246 91 111 114 108 133 173 189 185 183 181 183
320 86 288 35 14 350 329 247 279 262 231 217 80 49 234 116 108 50 72 158 214 228 333 33 94 296 120 276 86 19 39 256 94 236 64 236 59 350 352 31 70 352 328 317 301 95 296 270 135 116 94 119 161 215 177 142 282 284 350 77 272 231 220 187 276 267 282 279 289 268 280 278 264 267 63 82 85 26 8 53 182 175 183 196 174 171 161 160
258 244 173 41 3 358 345 231 245 248 206 161 132 158 63 55 94 67 80 351 350 304 41 34 358 69 317 90 28 91 15 19 279 106 252 98 239 38 17 340 101 47 14 315 266 115 209 296 128 147 195 139 209 223 250 170 139 208 229 238 239 270 274 259 269 310 299 286 287 279 252 275 206 299 19 323 44 7 344 330 327 331 184 193 186 165 168 167
211 209 124 44 0 352 178 222 243 212 233 142 151 77 94 118 96 83 115 302 33 323 63 74 34 106 68 61 355 43 45 11 4 71 294 80 51 60 49 26 348 37 13 297 342 276 257 289 299 136 160 214 213 208 309 317 287 200 227 240 202 251 14 286 277 257 271 287 286 298 284 272 320 70 336 330 5 343 340 323 327 321 334 265 275 132 154 163
275 273 102 7 355 335 229 243 226 151 96 70 48 109 146 101 128 115 73 325 351 9 1 60 33 61 36 169 111 17 75 78 5 75 340 114 324 135 57 10 332 347 351 192 176 123 260 220 274 297 241 235 45 39 0 311 311 294 298 277 284 262 243 246 260 181 254 251 260 268 269 271 129 175 322 313 14 305 351 329 317 327 323 12 158 172 170 180
233 204 95 4 345 317 260 190 80 336 208 141 114 120 117 333 158 126 146 159 285 97 359 47 45 36 92 57 36 78 340 68 76 224 61 348 81 7 67 357 325 317 291 3 6 55 332 305 285 271 281 310 35 48 360 264 259 279 281 293 320 282 277 261 271 263 231 249 275 275 287 281 76 144 168 172 283 338 344 325 314 319 337 350 305 208 188 196
255 32 57 336 352 314 262 104 125 179 91 60 148 119 106 150 90 129 189 144 180 119 166 246 53 205 82 351 38 57 358 85 351 56 65 112 92 49 33 356 306 253 275 132 176 90 259 265 269 261 265 145 153 132 122 144 176 206 181 282 271 272 303 290 290 308 289 280 244 252 247 262 135 142 141 155 185 308 291 290 316 318 335 352 335 262 225 198
17 16 60 12 344 293 249 150 148 120 105 113 119 102 51 41 209 153 126 106 341 153 106 116 158 342 44 322 336 11 359 259 60 246 148 230 114 73 56 38 272 22 327 48 318 87 260 118 295 294 274 248 182 177 166 186 220 275 311 51 344 287 277 305 292 276 265 261 268 270 271 276 105 136 152 203 213 259 260 185 324 316 324 340 358 13 215 205
95 180 264 9 13 331 254 24 107 133 116 125 139 128 147 139 39 15 5 83 110 65 208 130 32 133 136 19 2 324 25 338 124 52 348 241 89 134 82 53 311 83 67 57 4 120 268 322 286 280 291 286 283 283 301 300 331 331 276 279 222 289 303 288 256 236 249 258 269 257 259 270 154 187 228 258 268 268 286 288 248 286 318 327 332 336 296 214
210 158 112 83 21 81 73 15 13 86 127 133 113 65 284 136 132 72 305 88 11 87 6 103 137 206 140 203 207 291 344 21 319 54 236 148 133 141 91 104 83 109 106 109 233 275 289 258 262 283 279 281 292 313 19 329 294 284 303 261 271 259 282 276 276 278 267 281 264 247 262 279 269 245 268 286 297 297 285 286 294 300 305 305 304 306 299 265
322 336 78 133 122 69 87 74 91 255 118 331 145 13 141 80 114 133 349 198 112 348 123 301 163 202 144 230 278 267 79 292 194 280 9 298 73 36 116 246 152 139 159 171 191 247 247 263 237 245 267 280 299 297 324 296 287 281 280 279 281 275 263 265 261 264 292 299 266 266 276 273 270 271 277 287 295 296 295 293 295 299 295 301 299 291 276 257
243 84 322 15 296 118 156 90 20 88 76 267 86 287 91 144 162 140 150 66 135 188 262 148 229 258 298 289 241 243 195 266 306 309 311 275 280 210 203 175 220 154 204 187 181 256 281 270 215 248 264 269 272 280 265 263 268 281 282 278 275 272 258 252 259 265 269 258 270 287 290 274 276 288 298 297 303 300 298 301 301 298 290 287 278 266 258 252
354 94 57 313 265 54 28 53 358 55 84 37 107 314 127 120 104 41 346 12 186 151 283 321 235 158 257 269 260 282 228 276 297 322 329 311 327 320 298 220 177 190 222 204 194 277 259 264 167 215 272 267 269 265 257 267 273 271 267 268 264 262 264 264 265 268 266 265 270 276 280 280 287 291 290 292 293 291 295 298 293 284 281 284 285 272 260 257
118 225 120 166 71 87 49 190 174 228 127 33 194 66 21 42 77 48 149 282 295 110 15 249 8 29 305 247 242 275 320 284 308 298 9 305 281 272 296 309 316 180 263 251 243 168 265 254 147 233 257 262 264 259 267 263 275 275 275 272 268 266 269 270 270 265 266 268 271 272 275 275 278 280 278 282 288 292 283 279 281 285 282 277 277 274 271 265
32 354 336 195 129 58 103 192 199 208 165 174 208 115 194 60 59 3 356 0 332 352 19 350 334 293 255 255 233 255 14 329 301 292 298 257 281 337 292 360 304 290 265 270 245 214 226 273 219 257 267 269 259 248 272 279 278 277 275 271 269 267 265 264 260 261 253 267 276 276 269 270 267 252 287 280 276 275 282 288 292 294 292 286 269 270 273 272
294 95 245 293 127 321 220 115 171 215 188 58 23 90 353 81 25 343 291 83 75 59 20 335 336 290 217 244 261 351 347 318 303 303 299 286 277 280 256 279 276 284 287 275 291 271 250 265 252 253 267 277 343 188 275 290 287 272 256 238 230 278 292 286 272 257 248 263 267 260 261 294 334 337 292 292 291 294 304 317 320 307 301 287 272 262 265 269